STARLINK-35315 (66543 NORAD) Tracking and Keplerian Element Data

This shows tracking and keplerian element data for the satellite.

Feedback or suggestion? Click here.




ElementValue
Catalog66543
NameSTARLINK-35315
Epoch Orbit609
Epoch Day354.25003472
Epoch Year2025
RAAN10.2706
Inclination42.9999
Eccentricity0.0001226
Argument of Perigee257.5494
Mean Anonmoly22.0606
Mean Motion15.40692481
Decay Rate4.745E-05
L11 66543U 25265AD 25354.25003472 .00004745 00000+0 12081-3 0 9990
L22 66543 42.9999 10.2706 0001226 257.5494 22.0606 15.40692481 6092



Live tracking and technical data element details for STARLINK-35315 (NORAD 66543). STARLINK-35315 can be tracked NOW for your location showing map with azimuth and elevation plus other details from your city location.







IsCatalogInMostPopularTable: catalog: 66543, numindb: 14
Update: records affected: 1



GetName: 66543 STARLINK-35315

Hit Count: updated at: Thu, 21 May 2026 11:04:21 GMT